Year,Month,Day,Hour,Minute,Value (Times are PST for windgust in km/hr)
2021,01,11,02,35,8.10
2021,01,11,02,36,8.10
2021,01,11,02,37,6.40
2021,01,11,02,38,4.80
2021,01,11,02,39,6.40
2021,01,11,02,40,4.80
2021,01,11,02,41,4.80
2021,01,11,04,22,3.20
2021,01,11,05,51,4.80
2021,01,11,05,52,6.40
2021,01,11,05,53,9.60
2021,01,11,05,54,9.60
2021,01,11,05,55,6.40
2021,01,11,05,56,6.40
2021,01,11,05,57,3.20
2021,01,11,06,09,4.80
2021,01,11,06,10,6.40
2021,01,11,06,11,3.20
2021,01,11,06,28,6.40
2021,01,11,06,29,4.80
2021,01,11,06,30,3.20
2021,01,11,07,00,3.20
2021,01,11,07,01,3.20
2021,01,11,07,02,3.20
2021,01,11,07,03,3.20
2021,01,11,07,04,4.80
2021,01,11,07,05,6.40
2021,01,11,07,06,6.40
2021,01,11,07,07,3.20
2021,01,11,07,11,4.80
2021,01,11,07,12,4.80
2021,01,11,07,13,3.20
2021,01,11,07,16,4.80
2021,01,11,07,20,6.40
2021,01,11,07,21,8.10
2021,01,11,07,22,3.20
2021,01,11,07,23,8.10
2021,01,11,07,24,4.80
2021,01,11,07,25,9.60
2021,01,11,07,26,11.30
2021,01,11,07,27,8.10
2021,01,11,07,28,11.30
2021,01,11,07,29,14.50
2021,01,11,07,30,9.60
2021,01,11,07,31,8.10
2021,01,11,07,32,6.40
2021,01,11,07,33,8.10
2021,01,11,07,34,4.80
2021,01,11,07,38,9.60
2021,01,11,07,39,4.80
2021,01,11,07,40,3.20
2021,01,11,07,51,4.80
2021,01,11,07,52,3.20
2021,01,11,09,14,3.20
2021,01,11,09,16,9.60
2021,01,11,09,17,8.10
2021,01,11,09,18,4.80
2021,01,11,09,19,8.10
2021,01,11,09,20,8.10
2021,01,11,09,21,6.40
2021,01,11,09,22,3.20
2021,01,11,09,23,8.10
2021,01,11,09,24,6.40
2021,01,11,09,25,3.20
2021,01,11,09,26,1.60
2021,01,11,09,27,1.60
2021,01,11,09,29,4.80
2021,01,11,09,30,1.60
2021,01,11,09,36,4.80
2021,01,11,09,37,11.30
2021,01,11,09,38,6.40
2021,01,11,09,42,16.10
2021,01,11,09,43,8.10
2021,01,11,09,44,6.40
2021,01,11,09,45,3.20
2021,01,11,09,49,6.40
2021,01,11,09,51,14.50
2021,01,11,09,52,8.10
2021,01,11,09,53,9.60
2021,01,11,09,54,12.90
2021,01,11,09,56,11.30
2021,01,11,09,57,8.10
2021,01,11,10,02,6.40
2021,01,11,10,03,9.60
2021,01,11,10,05,3.20
2021,01,11,10,06,8.10
2021,01,11,10,09,8.10
2021,01,11,10,10,12.90
2021,01,11,10,17,11.30
2021,01,11,10,18,14.50
2021,01,11,10,19,8.10
2021,01,11,10,20,16.10
2021,01,11,10,21,6.40
2021,01,11,10,22,3.20
2021,01,11,10,23,9.60
2021,01,11,10,24,11.30
2021,01,11,10,25,17.70
2021,01,11,10,26,19.30
2021,01,11,10,27,4.80
2021,01,11,10,28,9.60
2021,01,11,10,29,17.70
2021,01,11,10,30,8.10
2021,01,11,10,32,12.90
2021,01,11,10,33,12.90
2021,01,11,10,34,24.20
2021,01,11,10,35,11.30
2021,01,11,10,36,24.20
2021,01,11,10,37,14.50
2021,01,11,10,38,9.60
2021,01,11,10,39,16.10
2021,01,11,10,40,9.60
2021,01,11,10,41,12.90
2021,01,11,10,42,11.30
2021,01,11,10,43,17.70
2021,01,11,10,44,14.50
2021,01,11,10,45,14.50
2021,01,11,10,46,19.30
2021,01,11,10,47,12.90
2021,01,11,10,48,9.60
2021,01,11,10,49,12.90
2021,01,11,10,50,9.60
2021,01,11,10,51,9.60
2021,01,11,10,52,9.60
2021,01,11,10,53,8.10
2021,01,11,10,54,14.50
2021,01,11,10,55,8.10
2021,01,11,10,56,9.60
2021,01,11,10,57,8.10
2021,01,11,10,58,11.30
2021,01,11,10,59,17.70
2021,01,11,11,00,14.50
2021,01,11,11,01,11.30
2021,01,11,11,02,4.80
2021,01,11,11,03,16.10
2021,01,11,11,04,17.70
2021,01,11,11,05,12.90
2021,01,11,11,06,14.50
2021,01,11,11,07,19.30
2021,01,11,11,08,12.90
2021,01,11,11,09,12.90
2021,01,11,11,10,16.10
2021,01,11,11,11,14.50
2021,01,11,11,12,17.70
2021,01,11,11,13,14.50
2021,01,11,11,14,16.10
2021,01,11,11,15,11.30
2021,01,11,11,16,16.10
2021,01,11,11,17,12.90
2021,01,11,11,18,11.30
2021,01,11,11,19,11.30
2021,01,11,11,20,19.30
2021,01,11,11,21,12.90
2021,01,11,11,22,14.50
2021,01,11,11,23,14.50
2021,01,11,11,24,11.30
2021,01,11,11,25,8.10
2021,01,11,11,26,14.50
2021,01,11,11,27,17.70
2021,01,11,11,28,11.30
2021,01,11,11,29,24.20
2021,01,11,11,30,12.90
2021,01,11,11,31,14.50
2021,01,11,11,32,11.30
2021,01,11,11,33,16.10
2021,01,11,11,34,16.10
2021,01,11,11,35,11.30
2021,01,11,11,36,17.70
2021,01,11,11,37,12.90
2021,01,11,11,38,11.30
2021,01,11,11,39,8.10
2021,01,11,11,41,14.50
2021,01,11,11,42,8.10
2021,01,11,11,43,14.50
2021,01,11,11,44,9.60
2021,01,11,11,45,11.30
2021,01,11,11,46,17.70
2021,01,11,11,47,11.30
2021,01,11,11,48,9.60
2021,01,11,11,49,9.60
2021,01,11,11,50,3.20
2021,01,11,11,51,3.20
2021,01,11,11,52,16.10
2021,01,11,11,53,16.10
2021,01,11,11,54,11.30
2021,01,11,11,55,12.90
2021,01,11,11,56,17.70
2021,01,11,11,57,12.90
2021,01,11,11,58,17.70
2021,01,11,11,59,16.10
2021,01,11,12,00,12.90
2021,01,11,12,01,19.30
2021,01,11,12,02,12.90
2021,01,11,12,03,14.50
2021,01,11,12,04,8.10
2021,01,11,12,05,9.60
2021,01,11,12,06,11.30
2021,01,11,12,07,6.40
2021,01,11,12,08,8.10
2021,01,11,12,09,8.10
2021,01,11,12,10,11.30
2021,01,11,12,11,11.30
2021,01,11,12,12,16.10
2021,01,11,12,13,11.30
2021,01,11,12,14,11.30
2021,01,11,12,15,11.30
2021,01,11,12,16,11.30
2021,01,11,12,17,12.90
2021,01,11,12,18,11.30
2021,01,11,12,19,12.90
2021,01,11,12,20,16.10
2021,01,11,12,21,16.10
2021,01,11,12,22,16.10
2021,01,11,12,23,22.50
2021,01,11,12,24,14.50
2021,01,11,12,25,12.90
2021,01,11,12,26,16.10
2021,01,11,12,27,12.90
2021,01,11,12,28,12.90
2021,01,11,12,29,24.20
2021,01,11,12,30,22.50
2021,01,11,12,31,16.10
2021,01,11,12,32,20.90
2021,01,11,12,33,22.50
2021,01,11,12,34,14.50
2021,01,11,12,35,19.30
2021,01,11,12,36,20.90
2021,01,11,12,37,17.70
2021,01,11,12,38,14.50
2021,01,11,12,39,17.70
2021,01,11,12,40,12.90
2021,01,11,12,41,12.90
2021,01,11,12,42,20.90
2021,01,11,12,43,11.30
2021,01,11,12,44,12.90
2021,01,11,12,45,16.10
2021,01,11,12,46,14.50
2021,01,11,12,47,24.20
2021,01,11,12,48,19.30
2021,01,11,12,49,29.00
2021,01,11,12,50,14.50
2021,01,11,12,51,20.90
2021,01,11,12,52,25.70
2021,01,11,12,53,14.50
2021,01,11,12,54,14.50
2021,01,11,12,55,16.10
2021,01,11,12,56,19.30
2021,01,11,12,57,25.70
2021,01,11,12,58,20.90
2021,01,11,12,59,14.50
2021,01,11,13,00,24.20
2021,01,11,13,01,22.50
2021,01,11,13,02,19.30
2021,01,11,13,03,22.50
2021,01,11,13,04,22.50
2021,01,11,13,05,24.20
2021,01,11,13,06,19.30
2021,01,11,13,07,32.20
2021,01,11,13,08,30.60
2021,01,11,13,09,20.90
2021,01,11,13,10,30.60
2021,01,11,13,11,27.40
2021,01,11,13,12,32.20
2021,01,11,13,13,17.70
2021,01,11,13,14,30.60
2021,01,11,13,15,29.00
2021,01,11,13,16,30.60
2021,01,11,13,17,22.50
2021,01,11,13,18,19.30
2021,01,11,13,19,33.80
2021,01,11,13,20,27.40
2021,01,11,13,21,32.20
2021,01,11,13,22,17.70
2021,01,11,13,23,20.90
2021,01,11,13,24,16.10
2021,01,11,13,25,29.00
2021,01,11,13,26,33.80
2021,01,11,13,27,30.60
2021,01,11,13,28,30.60
2021,01,11,13,29,27.40
2021,01,11,13,30,24.20
2021,01,11,13,31,22.50
2021,01,11,13,32,22.50
2021,01,11,13,33,27.40
2021,01,11,13,34,27.40
2021,01,11,13,35,29.00
2021,01,11,13,36,17.70
2021,01,11,13,37,19.30
2021,01,11,13,38,20.90
2021,01,11,13,39,19.30
2021,01,11,13,40,27.40
2021,01,11,13,41,17.70
2021,01,11,13,42,27.40
2021,01,11,13,43,37.00
2021,01,11,13,44,22.50
2021,01,11,13,45,32.20
2021,01,11,13,46,29.00
2021,01,11,13,47,24.20
2021,01,11,13,48,25.70
2021,01,11,13,49,27.40
2021,01,11,13,50,17.70
2021,01,11,13,51,19.30
2021,01,11,13,52,16.10
2021,01,11,13,53,27.40
2021,01,11,13,54,22.50
2021,01,11,13,55,16.10
2021,01,11,13,56,32.20
2021,01,11,13,57,35.40
2021,01,11,13,58,30.60
2021,01,11,13,59,17.70
2021,01,11,14,00,16.10
2021,01,11,14,01,27.40
2021,01,11,14,02,25.70
2021,01,11,14,03,30.60
2021,01,11,14,04,14.50
2021,01,11,14,05,19.30
2021,01,11,14,06,29.00
2021,01,11,14,07,19.30
2021,01,11,14,08,16.10
2021,01,11,14,09,14.50
2021,01,11,14,10,24.20
2021,01,11,14,11,12.90
2021,01,11,14,12,22.50
2021,01,11,14,13,17.70
2021,01,11,14,14,20.90
2021,01,11,14,15,16.10
2021,01,11,14,16,22.50
2021,01,11,14,17,32.20
2021,01,11,14,18,16.10
2021,01,11,14,19,16.10
2021,01,11,14,20,19.30
2021,01,11,14,21,14.50
2021,01,11,14,22,17.70
2021,01,11,14,23,20.90
2021,01,11,14,24,17.70
2021,01,11,14,25,20.90
2021,01,11,14,26,19.30
2021,01,11,14,27,16.10
2021,01,11,14,28,17.70
2021,01,11,14,29,19.30
2021,01,11,14,30,17.70
2021,01,11,14,31,24.20
2021,01,11,14,32,25.70
2021,01,11,14,33,16.10
2021,01,11,14,34,17.70
2021,01,11,14,35,22.50
2021,01,11,14,36,20.90
2021,01,11,14,37,19.30
2021,01,11,14,38,30.60
2021,01,11,14,39,30.60
2021,01,11,14,40,19.30
2021,01,11,14,41,19.30
2021,01,11,14,42,19.30
2021,01,11,14,43,17.70
2021,01,11,14,44,30.60
2021,01,11,14,45,30.60
2021,01,11,14,46,22.50
2021,01,11,14,47,30.60
2021,01,11,14,48,27.40
2021,01,11,14,49,22.50
2021,01,11,14,50,20.90
2021,01,11,14,51,16.10
2021,01,11,14,52,24.20
2021,01,11,14,53,25.70
2021,01,11,14,54,25.70
2021,01,11,14,55,25.70
2021,01,11,14,56,27.40
2021,01,11,14,57,17.70
2021,01,11,14,58,30.60
2021,01,11,14,59,27.40
2021,01,11,15,00,22.50
2021,01,11,15,01,19.30
2021,01,11,15,02,22.50
2021,01,11,15,03,17.70
2021,01,11,15,04,19.30
2021,01,11,15,05,17.70
2021,01,11,15,06,24.20
2021,01,11,15,07,19.30
2021,01,11,15,08,16.10
2021,01,11,15,09,24.20
2021,01,11,15,10,20.90
2021,01,11,15,11,22.50
2021,01,11,15,12,20.90
2021,01,11,15,13,16.10
2021,01,11,15,14,16.10
2021,01,11,15,15,16.10
2021,01,11,15,16,25.70
2021,01,11,15,17,17.70
2021,01,11,15,18,17.70
2021,01,11,15,19,16.10
2021,01,11,15,20,16.10
2021,01,11,15,21,16.10
2021,01,11,15,22,22.50
2021,01,11,15,23,22.50
2021,01,11,15,24,19.30
2021,01,11,15,25,8.10
2021,01,11,15,26,17.70
2021,01,11,15,27,27.40
2021,01,11,15,28,27.40
2021,01,11,15,29,19.30
2021,01,11,15,30,12.90
2021,01,11,15,31,12.90
2021,01,11,15,32,16.10
2021,01,11,15,33,16.10
2021,01,11,15,34,16.10
2021,01,11,15,35,16.10
2021,01,11,15,36,14.50
2021,01,11,15,37,22.50
2021,01,11,15,38,20.90
2021,01,11,15,39,22.50
2021,01,11,15,40,19.30
2021,01,11,15,41,9.60
2021,01,11,15,42,11.30
2021,01,11,15,43,8.10
2021,01,11,15,44,11.30
2021,01,11,15,45,11.30
2021,01,11,15,46,1.60
2021,01,11,15,47,8.10
2021,01,11,15,48,14.50
2021,01,11,15,49,11.30
2021,01,11,15,50,14.50
2021,01,11,15,51,14.50
2021,01,11,15,52,8.10
2021,01,11,15,53,19.30
2021,01,11,15,54,8.10
2021,01,11,15,55,9.60
2021,01,11,15,56,12.90
2021,01,11,15,57,1.60
2021,01,11,15,59,4.80
2021,01,11,16,00,3.20
2021,01,11,16,03,14.50
2021,01,11,16,09,8.10
2021,01,11,16,11,1.60
2021,01,11,16,12,8.10
2021,01,11,16,13,3.20
2021,01,11,16,15,6.40
2021,01,11,16,16,12.90
2021,01,11,16,17,8.10
2021,01,11,16,18,11.30
2021,01,11,16,19,9.60
2021,01,11,16,20,19.30
2021,01,11,16,21,9.60
2021,01,11,16,22,9.60
2021,01,11,16,23,12.90
2021,01,11,16,24,12.90
2021,01,11,16,25,9.60
2021,01,11,16,26,29.00
2021,01,11,16,27,27.40
2021,01,11,16,28,6.40
2021,01,11,16,29,11.30
2021,01,11,16,30,22.50
2021,01,11,16,31,22.50
2021,01,11,16,32,14.50
2021,01,11,16,33,25.70
2021,01,11,16,34,14.50
2021,01,11,16,35,24.20
2021,01,11,16,36,11.30
2021,01,11,16,37,12.90
2021,01,11,16,38,19.30
2021,01,11,16,39,16.10
2021,01,11,16,40,16.10
2021,01,11,16,41,24.20
2021,01,11,16,42,14.50
2021,01,11,16,43,20.90
2021,01,11,16,44,19.30
2021,01,11,16,45,25.70
2021,01,11,16,46,20.90
2021,01,11,16,47,16.10
2021,01,11,16,48,16.10
2021,01,11,16,49,14.50
2021,01,11,16,50,14.50
2021,01,11,16,51,24.20
2021,01,11,16,52,17.70
2021,01,11,16,53,19.30
2021,01,11,16,54,30.60
2021,01,11,16,55,19.30
2021,01,11,16,56,24.20
2021,01,11,16,57,25.70
2021,01,11,16,58,27.40
2021,01,11,16,59,16.10
2021,01,11,17,00,20.90
2021,01,11,17,01,20.90
2021,01,11,17,02,17.70
2021,01,11,17,03,22.50
2021,01,11,17,04,22.50
2021,01,11,17,05,22.50
2021,01,11,17,06,19.30
2021,01,11,17,07,19.30
2021,01,11,17,08,24.20
2021,01,11,17,09,19.30
2021,01,11,17,10,12.90
2021,01,11,17,11,16.10
2021,01,11,17,12,19.30
2021,01,11,17,13,22.50
2021,01,11,17,14,16.10
2021,01,11,17,15,16.10
2021,01,11,17,16,19.30
2021,01,11,17,17,17.70
2021,01,11,17,18,16.10
2021,01,11,17,19,14.50
2021,01,11,17,20,22.50
2021,01,11,17,21,16.10
2021,01,11,17,22,20.90
2021,01,11,17,23,20.90
2021,01,11,17,24,19.30
2021,01,11,17,25,11.30
2021,01,11,17,26,20.90
2021,01,11,17,27,12.90
2021,01,11,17,28,17.70
2021,01,11,17,29,17.70
2021,01,11,17,30,20.90
2021,01,11,17,31,27.40
2021,01,11,17,32,24.20
2021,01,11,17,33,20.90
2021,01,11,17,34,19.30
2021,01,11,17,35,25.70
2021,01,11,17,36,27.40
2021,01,11,17,37,19.30
2021,01,11,17,38,32.20
2021,01,11,17,39,25.70
2021,01,11,17,40,19.30
2021,01,11,17,41,30.60
2021,01,11,17,42,22.50
2021,01,11,17,43,16.10
2021,01,11,17,44,20.90
2021,01,11,17,45,27.40
2021,01,11,17,46,33.80
2021,01,11,17,47,29.00
2021,01,11,17,48,24.20
2021,01,11,17,49,22.50
2021,01,11,17,50,16.10
2021,01,11,17,51,30.60
2021,01,11,17,52,33.80
2021,01,11,17,53,17.70
2021,01,11,17,54,29.00
2021,01,11,17,55,17.70
2021,01,11,17,56,14.50
2021,01,11,17,57,25.70
2021,01,11,17,58,17.70
2021,01,11,17,59,24.20
2021,01,11,18,00,12.90
2021,01,11,18,01,25.70
2021,01,11,18,02,29.00
2021,01,11,18,03,20.90
2021,01,11,18,04,20.90
2021,01,11,18,05,17.70
2021,01,11,18,06,19.30
2021,01,11,18,07,19.30
2021,01,11,18,08,32.20
2021,01,11,18,09,20.90
2021,01,11,18,10,19.30
2021,01,11,18,11,24.20
2021,01,11,18,12,24.20
2021,01,11,18,13,20.90
2021,01,11,18,14,20.90
2021,01,11,18,15,12.90
2021,01,11,18,16,14.50
2021,01,11,18,17,24.20
2021,01,11,18,18,16.10
2021,01,11,18,19,19.30
2021,01,11,18,20,19.30
2021,01,11,18,21,20.90
2021,01,11,18,22,24.20
2021,01,11,18,23,16.10
2021,01,11,18,24,19.30
2021,01,11,18,25,24.20
2021,01,11,18,26,19.30
2021,01,11,18,27,22.50
2021,01,11,18,28,24.20
2021,01,11,18,29,19.30
2021,01,11,18,30,19.30
2021,01,11,18,31,29.00
2021,01,11,18,32,24.20
2021,01,11,18,33,27.40
2021,01,11,18,34,17.70
2021,01,11,18,35,33.80
2021,01,11,18,36,17.70
2021,01,11,18,37,30.60
2021,01,11,18,38,17.70
2021,01,11,18,39,27.40
2021,01,11,18,40,19.30
2021,01,11,18,41,16.10
2021,01,11,18,42,24.20
2021,01,11,18,43,20.90
2021,01,11,18,44,14.50
2021,01,11,18,45,27.40
2021,01,11,18,46,27.40
2021,01,11,18,47,14.50
2021,01,11,18,48,14.50
2021,01,11,18,49,14.50
2021,01,11,18,50,16.10
2021,01,11,18,51,22.50
2021,01,11,18,52,14.50
2021,01,11,18,53,24.20
2021,01,11,18,54,20.90
2021,01,11,18,55,19.30
2021,01,11,18,56,19.30
2021,01,11,18,57,14.50
2021,01,11,18,58,19.30
2021,01,11,18,59,19.30
2021,01,11,19,00,22.50
2021,01,11,19,01,19.30
2021,01,11,19,02,12.90
2021,01,11,19,03,19.30
2021,01,11,19,04,16.10
2021,01,11,19,05,12.90
2021,01,11,19,06,25.70
2021,01,11,19,07,22.50
2021,01,11,19,08,24.20
2021,01,11,19,09,22.50
2021,01,11,19,10,22.50
2021,01,11,19,11,22.50
2021,01,11,19,12,22.50
2021,01,11,19,13,29.00
2021,01,11,19,14,20.90
2021,01,11,19,15,30.60
2021,01,11,19,16,22.50
2021,01,11,19,17,24.20
2021,01,11,19,18,20.90
2021,01,11,19,19,14.50
2021,01,11,19,20,17.70
2021,01,11,19,21,19.30
2021,01,11,19,22,19.30
2021,01,11,19,23,25.70
2021,01,11,19,24,22.50
2021,01,11,19,25,17.70
2021,01,11,19,26,25.70
2021,01,11,19,27,17.70
2021,01,11,19,28,22.50
2021,01,11,19,29,25.70
2021,01,11,19,30,14.50
2021,01,11,19,31,19.30
2021,01,11,19,32,20.90
2021,01,11,19,33,19.30
2021,01,11,19,34,24.20
2021,01,11,19,35,20.90
2021,01,11,19,36,27.40
2021,01,11,19,37,22.50
2021,01,11,19,38,19.30
2021,01,11,19,39,22.50
2021,01,11,19,40,14.50
2021,01,11,19,41,19.30
2021,01,11,19,42,19.30
2021,01,11,19,43,19.30
2021,01,11,19,44,29.00
2021,01,11,19,45,16.10
2021,01,11,19,46,16.10
2021,01,11,19,47,11.30
2021,01,11,19,48,12.90
2021,01,11,19,49,16.10
2021,01,11,19,50,16.10
2021,01,11,19,51,19.30
2021,01,11,19,52,24.20
2021,01,11,19,53,16.10
2021,01,11,19,54,20.90
2021,01,11,19,55,16.10
2021,01,11,19,56,19.30
2021,01,11,19,57,19.30
2021,01,11,19,58,12.90
2021,01,11,19,59,19.30
2021,01,11,20,00,14.50
2021,01,11,20,01,17.70
2021,01,11,20,02,19.30
2021,01,11,20,03,20.90
2021,01,11,20,04,9.60
2021,01,11,20,05,17.70
2021,01,11,20,06,12.90
2021,01,11,20,07,11.30
2021,01,11,20,08,14.50
2021,01,11,20,09,9.60
2021,01,11,20,10,11.30
2021,01,11,20,11,14.50
2021,01,11,20,12,25.70
2021,01,11,20,13,11.30
2021,01,11,20,14,12.90
2021,01,11,20,15,14.50
2021,01,11,20,16,12.90
2021,01,11,20,17,11.30
2021,01,11,20,18,20.90
2021,01,11,20,19,20.90
2021,01,11,20,20,17.70
2021,01,11,20,21,20.90
2021,01,11,20,22,33.80
2021,01,11,20,23,16.10
2021,01,11,20,24,27.40
2021,01,11,20,25,29.00
2021,01,11,20,26,14.50
2021,01,11,20,27,22.50
2021,01,11,20,28,16.10
2021,01,11,20,29,14.50
2021,01,11,20,30,20.90
2021,01,11,20,31,14.50
2021,01,11,20,32,30.60
2021,01,11,20,33,17.70
2021,01,11,20,34,24.20
2021,01,11,20,35,27.40
2021,01,11,20,36,16.10
2021,01,11,20,37,16.10
2021,01,11,20,38,22.50
2021,01,11,20,39,29.00
2021,01,11,20,40,19.30
2021,01,11,20,41,17.70
2021,01,11,20,42,17.70
2021,01,11,20,43,25.70
2021,01,11,20,44,17.70
2021,01,11,20,45,19.30
2021,01,11,20,46,29.00
2021,01,11,20,47,17.70
2021,01,11,20,48,17.70
2021,01,11,20,49,22.50
2021,01,11,20,50,27.40
2021,01,11,20,51,22.50
2021,01,11,20,52,12.90
2021,01,11,20,53,24.20
2021,01,11,20,54,24.20
2021,01,11,20,55,17.70
2021,01,11,20,56,25.70
2021,01,11,20,57,14.50
2021,01,11,20,58,25.70
2021,01,11,20,59,35.40
2021,01,11,21,00,30.60
2021,01,11,21,01,25.70
2021,01,11,21,02,22.50
2021,01,11,21,03,22.50
2021,01,11,21,04,20.90
2021,01,11,21,05,25.70
2021,01,11,21,06,19.30
2021,01,11,21,07,19.30
2021,01,11,21,08,27.40
2021,01,11,21,09,19.30
2021,01,11,21,10,22.50
2021,01,11,21,11,22.50
2021,01,11,21,12,30.60
2021,01,11,21,13,25.70
2021,01,11,21,14,24.20
2021,01,11,21,15,22.50
2021,01,11,21,16,20.90
2021,01,11,21,17,17.70
2021,01,11,21,18,24.20
2021,01,11,21,19,17.70
2021,01,11,21,20,17.70
2021,01,11,21,21,16.10
2021,01,11,21,22,37.00
2021,01,11,21,23,19.30
2021,01,11,21,24,22.50
2021,01,11,21,25,24.20
2021,01,11,21,26,24.20
2021,01,11,21,27,20.90
2021,01,11,21,28,24.20
2021,01,11,21,29,24.20
2021,01,11,21,30,22.50
2021,01,11,21,31,25.70
2021,01,11,21,32,19.30
2021,01,11,21,33,32.20
2021,01,11,21,34,16.10
2021,01,11,21,35,20.90
2021,01,11,21,36,33.80
2021,01,11,21,37,32.20
2021,01,11,21,38,27.40
2021,01,11,21,39,19.30
2021,01,11,21,40,22.50
2021,01,11,21,41,22.50
2021,01,11,21,42,24.20
2021,01,11,21,43,27.40
2021,01,11,21,44,27.40
2021,01,11,21,45,25.70
2021,01,11,21,46,30.60
2021,01,11,21,47,6.40
2021,01,11,21,48,12.90
2021,01,11,21,49,32.20
2021,01,11,21,50,17.70
2021,01,11,21,51,19.30
2021,01,11,21,52,25.70
2021,01,11,21,53,24.20
2021,01,11,21,54,25.70
2021,01,11,21,55,17.70
2021,01,11,21,56,17.70
2021,01,11,21,57,14.50
2021,01,11,21,58,9.60
2021,01,11,21,59,11.30
2021,01,11,22,00,27.40
2021,01,11,22,01,22.50
2021,01,11,22,02,32.20
2021,01,11,22,03,24.20
2021,01,11,22,04,22.50
2021,01,11,22,05,27.40
2021,01,11,22,06,12.90
2021,01,11,22,07,24.20
2021,01,11,22,08,17.70
2021,01,11,22,09,25.70
2021,01,11,22,10,33.80
2021,01,11,22,11,17.70
2021,01,11,22,12,25.70
2021,01,11,22,13,25.70
2021,01,11,22,14,29.00
2021,01,11,22,15,24.20
2021,01,11,22,16,24.20
2021,01,11,22,17,25.70
2021,01,11,22,18,27.40
2021,01,11,22,19,17.70
2021,01,11,22,20,17.70
2021,01,11,22,21,25.70
2021,01,11,22,22,16.10
2021,01,11,22,23,19.30
2021,01,11,22,24,33.80
2021,01,11,22,25,17.70
2021,01,11,22,26,22.50
2021,01,11,22,27,11.30
2021,01,11,22,28,25.70
2021,01,11,22,29,33.80
2021,01,11,22,30,27.40
2021,01,11,22,31,20.90
2021,01,11,22,32,35.40
2021,01,11,22,33,38.60
2021,01,11,22,34,29.00
2021,01,11,22,35,35.40
2021,01,11,22,36,24.20
2021,01,11,22,37,24.20
2021,01,11,22,38,25.70
2021,01,11,22,39,32.20
2021,01,11,22,40,19.30
2021,01,11,22,41,17.70
2021,01,11,22,42,19.30
2021,01,11,22,43,25.70
2021,01,11,22,44,33.80
2021,01,11,22,45,19.30
2021,01,11,22,46,22.50
2021,01,11,22,47,29.00
2021,01,11,22,48,29.00
2021,01,11,22,49,29.00
2021,01,11,22,50,24.20
2021,01,11,22,51,38.60
2021,01,11,22,52,38.60
2021,01,11,22,53,38.60
2021,01,11,22,54,35.40
2021,01,11,22,55,29.00
2021,01,11,22,56,33.80
2021,01,11,22,57,27.40
2021,01,11,22,58,25.70
2021,01,11,22,59,37.00
2021,01,11,23,00,27.40
2021,01,11,23,01,25.70
2021,01,11,23,02,20.90
2021,01,11,23,03,29.00
2021,01,11,23,04,35.40
2021,01,11,23,05,25.70
2021,01,11,23,06,30.60
2021,01,11,23,07,24.20
2021,01,11,23,08,22.50
2021,01,11,23,09,24.20
2021,01,11,23,10,27.40
2021,01,11,23,11,33.80
2021,01,11,23,12,22.50
2021,01,11,23,13,30.60
2021,01,11,23,14,27.40
2021,01,11,23,15,30.60
2021,01,11,23,16,25.70
2021,01,11,23,17,22.50
2021,01,11,23,18,24.20
2021,01,11,23,19,20.90
2021,01,11,23,20,37.00
2021,01,11,23,21,22.50
2021,01,11,23,22,20.90
2021,01,11,23,23,22.50
2021,01,11,23,24,17.70
2021,01,11,23,25,20.90
2021,01,11,23,26,20.90
2021,01,11,23,27,20.90
2021,01,11,23,28,29.00
2021,01,11,23,29,35.40
2021,01,11,23,30,27.40
2021,01,11,23,31,35.40
2021,01,11,23,32,24.20
2021,01,11,23,33,30.60
2021,01,11,23,34,20.90
2021,01,11,23,35,19.30
2021,01,11,23,36,14.50
2021,01,11,23,37,20.90
2021,01,11,23,38,24.20
2021,01,11,23,39,45.10
2021,01,11,23,40,27.40
2021,01,11,23,41,32.20
2021,01,11,23,42,35.40
2021,01,11,23,43,32.20
2021,01,11,23,44,20.90
2021,01,11,23,45,24.20
2021,01,11,23,46,27.40
2021,01,11,23,47,27.40
2021,01,11,23,48,24.20
2021,01,11,23,49,27.40
2021,01,11,23,50,19.30
2021,01,11,23,51,30.60
2021,01,11,23,52,29.00
2021,01,11,23,53,20.90
2021,01,11,23,54,17.70
2021,01,11,23,55,17.70
2021,01,11,23,56,27.40
2021,01,11,23,57,25.70
2021,01,11,23,58,24.20
2021,01,11,23,59,25.70
